Wind_Speed
13 13 14 14 14 14 15 14 14 14 14 14 14 14 15 15 15 16 16 16 16 16 17 17 17 17 17 17 17 17 17 17 18 18 19 19 20 20 20 20 21 21 22
14 14 14 14 14 14 15 15 15 15 15 15 15 16 16 17 17 17 17 17 17 17 17 18 17 17 17 17 18 18 18 18 19 19 19 20 21 21 21 21 21 22 22
14 14 15 15 15 15 15 16 16 16 16 17 17 18 17 17 18 17 17 17 17 17 17 17 17 18 18 19 19 19 19 19 19 19 19 20 21 21 22 22 23 23 23
15 15 15 16 16 16 16 17 17 17 18 18 19 19 18 18 18 18 18 19 19 19 18 18 18 18 19 19 19 20 20 20 20 21 21 21 21 22 22 22 22 23 23
16 16 16 16 16 16 17 18 18 19 19 19 19 19 19 18 19 19 20 20 20 20 19 19 19 20 20 20 20 21 21 21 22 23 22 23 23 23 23 23 23 23 24
17 17 17 17 17 17 18 19 19 20 20 20 20 19 19 19 20 20 20 20 20 20 20 20 20 21 21 22 22 22 22 23 23 24 24 24 24 24 24 25 25 25 25
18 19 19 19 19 19 19 20 20 20 21 21 21 20 20 20 20 21 21 21 21 22 22 22 22 22 22 23 23 24 24 24 24 25 25 25 25 26 26 27 26 26 27
20 20 20 20 20 20 21 21 21 22 22 22 22 22 22 22 22 22 22 22 22 23 23 23 23 23 23 24 24 24 25 25 26 26 26 26 26 27 27 27 27 26 27
21 21 21 21 21 21 22 22 23 24 23 23 23 23 24 24 24 24 24 24 24 24 24 24 24 24 25 25 25 25 25 25 26 26 26 27 27 27 28 28 28 28 28
22 22 22 22 23 23 23 23 24 23 24 24 24 24 24 24 25 25 25 25 25 24 25 25 25 25 26 26 26 25 26 27 27 27 27 27 27 27 28 28 29 30 30
23 23 23 23 23 24 24 25 24 24 24 24 24 25 25 26 26 26 26 26 26 26 25 25 25 26 27 27 27 27 28 28 28 28 27 27 28 28 28 29 30 30 30
25 24 25 24 24 25 25 25 25 25 25 25 25 26 26 27 27 27 27 27 27 27 26 26 26 27 27 28 28 28 29 29 29 28 28 28 28 28 29 29 30 30 31
26 25 25 26 26 26 26 25 25 25 26 26 26 26 27 27 27 27 27 28 28 27 27 27 27 28 28 28 28 29 29 29 29 29 29 29 29 29 29 29 29 30 31
27 27 26 27 27 27 27 26 26 26 26 26 27 27 27 27 26 26 27 27 27 27 27 28 28 28 29 29 29 29 29 29 29 30 31 31 30 30 30 30 30 31 31
28 28 28 28 28 27 27 27 27 27 27 27 27 27 28 27 27 27 27 27 27 28 28 28 28 28 29 29 29 29 29 30 31 31 32 31 31 31 31 31 31 32 33
28 28 28 28 28 28 28 28 28 29 29 29 29 28 28 28 28 28 27 27 27 28 28 28 28 28 29 30 30 30 30 31 32 32 32 31 32 32 31 31 32 32 33
29 29 28 29 28 28 28 28 29 29 30 30 30 30 30 29 29 29 28 28 28 28 29 29 29 29 30 30 31 31 31 31 31 32 32 32 32 32 32 32 32 33 33
30 29 29 29 29 29 30 30 30 30 30 30 30 30 30 29 29 29 29 29 28 29 29 29 30 30 31 31 31 31 31 32 32 32 32 32 32 32 32 33 33 33 33
31 31 31 30 29 30 30 30 31 31 31 30 30 30 30 29 29 29 29 29 29 29 30 31 31 31 31 31 32 32 32 32 32 31 32 32 32 32 32 32 32 32 32
31 31 32 31 30 31 31 31 31 31 31 30 30 30 30 30 30 30 30 30 30 30 31 31 31 31 31 30 31 31 32 32 31 31 31 31 31 31 31 31 31 31 32
30 31 31 32 31 31 31 31 31 31 31 31 30 30 29 29 29 29 29 30 31 31 32 31 31 31 31 31 31 31 32 31 31 31 31 31 31 31 30 31 31 32 32
31 31 31 31 32 31 31 31 31 31 31 31 30 30 29 29 29 29 29 31 31 31 31 30 30 30 31 31 31 31 31 31 30 30 30 30 30 31 31 31 31 31 32
32 32 32 32 31 31 31 31 32 31 31 31 30 30 30 29 29 29 30 31 31 31 30 30 30 30 30 31 31 30 30 29 29 29 29 29 30 30 30 30 31 32 32
33 33 33 33 32 31 30 31 31 31 31 31 30 30 30 30 30 30 30 30 30 31 31 30 30 30 30 30 31 31 30 30 30 30 30 30 30 30 30 31 32 33 33
34 34 34 34 33 32 32 32 31 31 31 31 30 30 30 30 30 30 30 30 30 30 30 30 30 30 30 31 31 32 31 31 31 31 31 31 31 31 32 33 33 33 34
34 34 35 34 33 33 32 32 32 33 32 31 30 30 29 29 29 29 29 29 29 29 30 31 31 31 32 32 32 32 32 31 32 32 32 32 32 33 33 34 34 34 34
Wind_Direction
288 289 291 288 285 285 285 284 284 285 283 283 282 286 288 288 289 288 289 289 289 289 289 288 287 287 286 287 287 287 287 288 288 288 286 287 290 292 290 288 288 286 285
291 291 292 290 286 287 286 283 284 285 284 285 285 286 288 288 288 289 289 289 290 289 288 287 287 288 289 290 289 288 287 287 288 289 287 287 290 291 291 289 288 286 286
291 292 293 292 289 288 286 284 284 285 286 287 287 288 288 288 287 288 288 288 289 290 290 289 289 288 289 290 290 289 288 287 288 289 289 290 292 292 291 290 290 288 287
291 293 293 292 289 286 285 284 284 285 285 286 288 289 287 286 286 288 289 289 289 289 288 288 288 288 289 290 290 289 288 287 287 288 287 288 290 291 290 290 289 289 289
290 291 291 292 288 284 284 283 283 284 285 286 288 288 287 287 287 288 289 289 289 288 287 287 287 288 289 290 291 290 288 288 288 288 287 288 289 289 290 289 289 289 289
289 289 289 290 288 285 284 283 283 283 283 285 286 286 287 288 288 288 289 289 289 288 286 286 287 289 290 291 291 290 288 287 288 288 287 288 288 289 290 290 289 289 289
287 287 288 288 288 285 284 284 284 283 284 284 285 286 287 287 288 289 289 287 288 289 287 287 288 288 289 291 291 290 290 289 288 288 288 290 289 289 289 289 289 288 289
286 286 286 286 287 287 286 285 284 284 284 283 284 284 285 287 287 287 288 288 288 289 288 287 287 288 289 290 291 292 290 289 290 290 290 291 292 291 290 290 289 290 291
286 286 286 286 286 287 287 286 286 284 283 283 283 284 284 285 286 286 286 286 287 287 288 287 287 287 288 289 290 291 291 291 292 292 293 294 294 294 293 292 292 292 292
286 286 285 286 286 286 286 287 286 284 283 283 283 284 285 286 286 285 285 285 285 286 287 287 287 287 288 289 290 291 292 293 293 293 294 294 295 295 294 294 294 293 293
283 283 283 285 287 288 287 287 285 283 283 284 283 284 285 286 286 285 285 285 285 286 286 287 287 288 289 289 290 290 292 293 294 293 293 294 294 295 294 294 294 293 294
282 281 282 284 287 289 288 286 284 282 282 284 284 284 286 286 286 286 285 285 285 286 285 286 287 288 290 291 291 291 292 293 293 293 292 293 294 295 295 294 294 293 294
281 281 280 283 286 287 287 286 284 283 283 284 283 285 287 287 286 285 285 285 285 285 285 286 287 288 290 291 292 292 293 293 293 292 293 294 294 294 295 295 295 294 295
279 280 279 283 286 286 285 284 286 285 284 285 284 286 289 288 287 286 285 286 285 283 284 286 287 288 289 291 291 291 292 293 292 292 293 293 293 294 294 295 295 295 296
279 281 281 282 286 286 285 283 284 284 284 286 287 288 288 288 287 286 285 286 285 284 284 286 287 287 289 290 290 291 292 293 293 293 293 292 292 293 294 294 294 295 297
279 281 282 281 284 286 283 282 283 285 284 285 286 286 287 287 286 286 285 285 285 285 284 286 287 288 289 290 290 290 292 293 293 294 293 293 293 293 293 293 294 295 297
280 280 281 282 283 285 284 281 283 285 284 284 285 285 286 285 284 284 284 284 285 285 285 287 288 288 289 290 291 291 292 293 293 293 293 293 294 294 293 294 294 295 297
281 281 281 282 282 283 283 282 282 283 285 285 285 285 285 284 283 283 283 282 283 283 285 287 288 289 290 290 292 293 293 294 294 294 295 294 294 294 295 295 296 296 296
280 281 281 281 281 282 282 282 283 283 283 284 284 284 284 284 283 283 283 282 282 283 284 286 287 289 290 292 293 293 294 294 294 294 295 295 295 295 296 296 296 296 297
280 280 280 281 280 281 283 283 283 284 284 284 284 284 283 283 283 284 283 282 282 283 284 285 286 288 289 291 292 293 294 294 294 294 295 294 295 296 297 297 297 297 297
280 280 279 279 279 281 282 283 283 284 284 284 284 285 284 283 282 282 283 282 281 283 285 285 285 286 287 289 292 292 293 295 294 294 295 294 294 296 297 298 299 299 299
279 280 281 281 280 280 282 284 285 285 284 284 284 283 282 282 281 282 282 283 284 286 287 287 288 288 289 290 291 292 293 293 294 295 295 295 295 296 296 297 300 301 301
279 279 279 281 282 281 282 284 285 285 285 284 283 282 282 281 282 282 283 284 284 286 288 288 288 288 289 290 292 293 294 295 295 296 296 297 297 297 298 299 301 301 302
278 277 277 279 281 280 281 282 284 286 286 284 283 283 282 281 281 282 283 283 284 285 287 287 288 289 289 290 291 292 293 293 294 295 295 296 297 297 298 300 301 301 302
279 278 277 279 280 281 281 281 283 285 285 284 283 283 282 281 281 282 283 284 285 286 287 286 287 289 290 291 291 291 290 291 293 294 293 294 295 296 297 300 301 302 302
280 279 278 279 281 282 281 282 283 284 284 283 281 281 281 281 281 282 283 284 285 286 286 285 286 288 289 289 289 290 290 290 291 292 292 293 295 296 297 299 301 301 302
Height
5835 5834 5834 5834 5833 5833 5832 5832 5832 5831 5831 5831 5830 5830 5830 5829 5828 5828 5827 5826 5826 5825 5824 5823 5822 5821 5821 5820 5819 5818 5817 5816 5815 5815 5814 5813 5812 5811 5810 5809 5808 5807 5806
5831 5831 5830 5830 5829 5829 5828 5828 5828 5828 5827 5827 5827 5826 5826 5825 5824 5823 5823 5822 5821 5820 5819 5818 5817 5817 5816 5815 5814 5813 5812 5811 5810 5810 5809 5808 5807 5805 5804 5803 5802 5801 5800
5828 5827 5827 5826 5825 5825 5825 5824 5824 5824 5824 5823 5823 5822 5821 5821 5820 5819 5818 5817 5816 5815 5814 5814 5813 5812 5811 5810 5809 5808 5807 5806 5805 5804 5803 5802 5801 5799 5798 5797 5795 5794 5793
5824 5824 5823 5822 5821 5821 5821 5821 5820 5820 5820 5819 5818 5817 5817 5816 5815 5814 5813 5812 5811 5810 5809 5808 5808 5807 5806 5805 5803 5802 5801 5800 5799 5798 5797 5796 5795 5793 5792 5791 5789 5788 5786
5820 5819 5819 5818 5817 5817 5816 5816 5816 5815 5815 5814 5813 5812 5812 5811 5810 5809 5808 5807 5806 5805 5804 5803 5802 5801 5800 5799 5798 5796 5795 5794 5793 5792 5790 5789 5788 5787 5785 5784 5782 5781 5779
5816 5815 5814 5813 5813 5812 5812 5811 5810 5810 5809 5809 5808 5807 5806 5806 5805 5804 5803 5801 5800 5799 5798 5797 5796 5795 5793 5792 5791 5790 5789 5787 5786 5785 5783 5782 5781 5779 5778 5776 5774 5773 5772
5810 5810 5809 5808 5807 5807 5806 5806 5805 5804 5804 5803 5802 5802 5801 5800 5799 5798 5797 5795 5794 5793 5792 5791 5790 5788 5787 5786 5784 5783 5781 5780 5779 5777 5776 5774 5773 5771 5770 5768 5766 5764 5763
5805 5804 5804 5803 5802 5801 5800 5799 5799 5798 5797 5797 5796 5795 5795 5794 5793 5791 5790 5789 5788 5787 5785 5784 5783 5782 5781 5779 5777 5776 5774 5772 5771 5769 5768 5766 5764 5762 5760 5759 5757 5755 5754
5799 5798 5798 5796 5795 5794 5793 5792 5791 5791 5790 5790 5789 5788 5788 5787 5786 5784 5783 5782 5781 5780 5779 5777 5776 5775 5774 5772 5770 5769 5767 5765 5763 5761 5759 5757 5755 5753 5751 5750 5748 5746 5745
5793 5792 5791 5790 5789 5788 5787 5785 5784 5783 5782 5782 5782 5781 5780 5779 5778 5777 5776 5775 5774 5773 5772 5770 5769 5768 5766 5764 5763 5761 5759 5757 5755 5753 5751 5749 5747 5744 5742 5740 5738 5737 5735
5786 5785 5784 5784 5782 5781 5779 5778 5777 5776 5775 5774 5774 5773 5772 5771 5770 5769 5768 5767 5766 5765 5764 5763 5761 5760 5758 5756 5755 5753 5751 5749 5747 5745 5743 5741 5738 5736 5733 5731 5729 5727 5725
5779 5778 5777 5776 5775 5774 5772 5771 5770 5769 5768 5766 5765 5765 5764 5763 5762 5760 5759 5758 5757 5757 5756 5755 5753 5752 5750 5748 5746 5744 5742 5740 5738 5736 5734 5732 5730 5727 5725 5722 5719 5717 5715
5771 5770 5770 5769 5768 5766 5765 5763 5762 5761 5760 5759 5758 5757 5756 5755 5753 5752 5751 5750 5749 5748 5747 5746 5744 5743 5741 5740 5738 5736 5733 5731 5729 5727 5725 5723 5721 5718 5715 5713 5710 5708 5705
5763 5762 5762 5761 5760 5758 5757 5756 5755 5754 5753 5752 5750 5749 5748 5746 5745 5744 5742 5741 5740 5739 5738 5737 5736 5734 5732 5731 5729 5727 5724 5722 5720 5718 5716 5714 5711 5709 5706 5703 5701 5698 5696
5754 5754 5753 5753 5752 5751 5749 5748 5747 5746 5745 5744 5743 5741 5740 5738 5737 5735 5734 5733 5732 5731 5730 5729 5727 5725 5724 5722 5720 5718 5715 5713 5711 5709 5706 5704 5701 5699 5696 5694 5691 5688 5685
5746 5745 5744 5744 5743 5742 5741 5740 5739 5738 5737 5735 5734 5732 5731 5730 5728 5727 5725 5724 5723 5722 5721 5720 5718 5717 5715 5713 5710 5708 5706 5703 5701 5698 5696 5693 5691 5688 5686 5683 5681 5678 5675
5737 5736 5736 5735 5735 5734 5733 5732 5731 5730 5728 5726 5725 5723 5722 5720 5719 5718 5717 5716 5714 5713 5712 5711 5709 5708 5705 5703 5701 5699 5696 5694 5691 5688 5686 5683 5680 5678 5675 5673 5670 5668 5665
5728 5728 5727 5726 5726 5725 5724 5723 5722 5721 5719 5717 5716 5714 5713 5711 5710 5709 5708 5707 5706 5705 5703 5701 5700 5698 5696 5694 5691 5689 5686 5684 5681 5678 5675 5672 5670 5667 5665 5662 5659 5657 5654
5719 5718 5717 5717 5716 5716 5714 5713 5712 5711 5710 5708 5707 5705 5704 5702 5701 5700 5699 5698 5697 5695 5694 5692 5690 5688 5686 5684 5682 5679 5676 5674 5671 5669 5666 5662 5659 5657 5654 5652 5649 5647 5644
5710 5709 5708 5707 5706 5706 5705 5704 5703 5701 5700 5699 5697 5696 5695 5693 5692 5691 5689 5688 5687 5686 5684 5682 5680 5678 5676 5674 5672 5669 5667 5664 5662 5659 5656 5653 5650 5647 5645 5642 5639 5637 5635
5700 5699 5698 5698 5697 5696 5695 5694 5693 5692 5691 5689 5688 5686 5685 5683 5682 5681 5680 5678 5677 5676 5674 5672 5670 5669 5667 5664 5662 5660 5657 5655 5652 5650 5647 5644 5641 5638 5635 5633 5630 5628 5625
5690 5689 5688 5688 5687 5686 5686 5685 5683 5682 5681 5679 5678 5677 5675 5674 5673 5672 5670 5669 5668 5666 5664 5662 5660 5659 5657 5655 5653 5650 5648 5646 5643 5641 5638 5635 5632 5630 5627 5624 5622 5619 5616
5680 5679 5679 5678 5677 5676 5675 5674 5673 5672 5671 5669 5668 5667 5666 5665 5664 5663 5661 5660 5658 5656 5655 5653 5651 5649 5647 5645 5643 5641 5639 5637 5634 5632 5629 5627 5624 5621 5619 5616 5613 5610 5607
5670 5669 5668 5668 5667 5666 5665 5664 5663 5662 5661 5659 5658 5657 5656 5655 5654 5653 5651 5650 5648 5647 5645 5643 5641 5639 5637 5635 5633 5632 5630 5627 5625 5623 5621 5618 5615 5613 5610 5607 5604 5601 5598
5659 5658 5658 5657 5657 5656 5655 5654 5653 5652 5651 5650 5648 5648 5647 5645 5644 5643 5642 5640 5639 5637 5635 5633 5632 5630 5628 5626 5624 5622 5620 5618 5616 5613 5611 5609 5606 5604 5601 5598 5595 5592 5588
5649 5648 5647 5647 5646 5645 5645 5644 5643 5642 5641 5639 5638 5637 5637 5636 5634 5633 5632 5631 5629 5628 5626 5624 5622 5620 5618 5616 5614 5612 5610 5608 5606 5603 5601 5599 5597 5594 5592 5589 5585 5582 5578